Regional Weather Roundup
Issued by NWS

Home | Current Version | Previous Version | Graphics & Text | Print | Product List | Glossary On
Versions: 1 2 3 4 5 6 7 8 9 10 11 12 13 14 15 16 17 18 19 20 21 22 23 24 25 26 27 28 29 30 31
000
ASUS45 KGTF 191610
RWRMT
MONTANA HOURLY WEATHER ROUNDUP
NATIONAL WEATHER SERVICE GREAT FALLS MT
1000 AM MDT SUN APR 19 2015

NOTE: "FAIR" INDICATES FEW OR NO CLOUDS BELOW 12000 FEET WITH NO
SIGNIFICANT WEATHER AND/OR OBSTRUCTIONS TO VISIBILITY.

MTZ001>007-043-191700-
WEST OF THE DIVIDE

CITY           SKY/WX    TMP DP  RH WIND       PRES   REMARKS
KALISPELL      SUNNY     50  28  42 N8        30.21F
MISSOULA       SUNNY     47  27  45 S5        30.21F
BUTTE          PTSUNNY   38  23  55 NE3       30.20F
DEER LODGE       N/A     39  28  65 E6        30.24F
EUREKA           N/A     46  28  49 CALM      30.24F
HAMILTON         N/A     46  27  46 NE3       30.20F
LIBBY            N/A     45  27  49 CALM      30.22F
$$

MTZ008-052>055-191700-
SOUTHWEST MONTANA

CITY           SKY/WX    TMP DP  RH WIND       PRES   REMARKS
BOZEMAN        MOSUNNY   40  26  57 CALM      30.23F
DILLON         SUNNY     39  23  52 CALM      30.21F
$$

MTZ009-010-012-014-046-048-049-054-191700-
EAST SLOPES AND CENTRAL MONTANA

CITY           SKY/WX    TMP DP  RH WIND       PRES   REMARKS
CUT BANK       CLOUDY    42  21  43 CALM      30.24F
GREAT FALLS    CLOUDY    43  28  55 CALM      30.24F
MALMSTROM AFB  SUNNY     42  29  59 W1        30.25F
HELENA         PTSUNNY   42  29  59 CALM      30.23F
$$

MTZ011-013-016-021-045-047-050-051-191700-
NORTH CENTRAL MONTANA

CITY           SKY/WX    TMP DP  RH WIND       PRES   REMARKS
HAVRE          SUNNY     42  25  50 VRB5      30.26F
LEWISTOWN      SUNNY     41  23  48 N6        30.23F
FORT BENTON      N/A     45  30  57 E3        30.28F
$$

MTZ017>020-022>042-056>058-061-062-191700-
EASTERN PLAINS

CITY           SKY/WX    TMP DP  RH WIND       PRES   REMARKS
BAKER          PTSUNNY   41  28  60 NW22G36   30.08F
BILLINGS       MOSUNNY   47  22  37 N13G18    30.24F
GLASGOW        MOSUNNY   45  27  49 NW26G33   30.16F
JORDAN           N/A     44  27  51 NW21      30.18F
LIVINGSTON     SUNNY     41  25  53 CALM      30.22F
MILES CITY     SUNNY     47  24  40 NW23G35   30.14F
SIDNEY         CLOUDY    43  30  61 W23G31    30.06F
WOLF POINT     CLOUDY    46  28  49 NW25      30.14S
BIG TIMBER       N/A     43  18  36 W5        30.23F
FORSYTH          N/A     46  21  36 NW15G26   30.18F
PLENTYWOOD       N/A     39  30  70 NW29G35   30.04S WCI  28
POPLAR           N/A     43  28  56 NW23G30   30.10F
$$

REGIONAL REPORTS...DAKOTAS

CITY           SKY/WX    TMP DP  RH WIND       PRES   REMARKS
WILLISTON      CLOUDY    42  33  70 NW22G31   30.03R
MINOT          CLOUDY    44  36  73 W26G32    29.87F
DICKINSON      CLOUDY    40  33  76 NW25      29.97S
BEACH          CLOUDY    39  30  70 NW28G36   30.06F WCI  28
CROSBY         CLOUDY    39  36  87 NW21G26   30.00S WCI  29
WATFORD CITY   CLOUDY    39  36  87 NW21G28   29.99S WCI  29
BISMARCK       PTSUNNY   47  36  65 NW25G37   29.90S
GRAND FORKS    LGT RAIN  45  43  93 NW17G23   29.70F
FARGO          CLOUDY    46  41  82 NW25G35   29.70F
BUFFALO SD       N/A     46  26  45 NW45G53   29.94F
RAPID CITY     SUNNY     46  25  43 NW40G47   30.05F
$$

REGIONAL REPORTS...WYOMING/IDAHO/WASHINGTON

CITY           SKY/WX    TMP DP  RH WIND       PRES   REMARKS
GILLETTE       SUNNY     40  22  48 NW23G32   30.14F
SHERIDAN       SUNNY     44  22  41 NW24G30   30.20F
BUFFALO WY     MOSUNNY   42  20  41 N24G37    30.17F
CODY           SUNNY     41  27  56 CALM      30.21F
YELLOWSTONE LA   N/A     30  17  58 VRB3      30.20F
IDAHO FALLS    PTSUNNY   46  23  40 N10       30.17F
SALMON         MOSUNNY   45  27  49 CALM      30.18F
BOISE          SUNNY     53  27  36 CALM      30.15S
SPOKANE        MOSUNNY   53  27  36 E7        30.17F
$$

REGIONAL REPORTS...ALBERTA

CITY           SKY/WX    TMP DP  RH WIND       PRES   REMARKS
EDMONTON       PTSUNNY   46  19  34 W7        30.23F
CALGARY        MOSUNNY   43  19  39 SW6       30.24F
LETHBRIDGE     PTSUNNY   39  32  75 NW2       30.27S
MEDICINE HAT   PTSUNNY   43  28  56 CALM      30.27F
$$

REGIONAL REPORTS...SASKATCHEWAN

CITY           SKY/WX    TMP DP  RH WIND       PRES   REMARKS
SWIFT CURRENT  SUNNY     41  30  65 NW15G21   30.18S
REGINA         CLOUDY    39  32  75 N20G35    30.08R WCI  30
SASKATOON      MOSUNNY   43  30  61 N16G23    30.18F
$$



USA.gov is the U.S. government's official web portal to all federal, state and local government web resources and services.